WS Maaseik 1 Meer informatie WS Maaseik 1


WS Maaseik 2 Meer informatie WS Maaseik 2


Regen radar Meer informatie rain snow radar


Bezoek onze andere website:

Vorige versie
weerstation Maaseik


Bezoek ook eens deze sites:

Weerstation Geleen



Het weer levert geen direct gevaar op.    Er zijn geen waarschuwingen afgegeven.

15 daagse weersverwachting Amstelveen (NL)

  • Overzicht
  • Per uur
  • 15 dagen
  • Extra
  • Vergelijk
  • Kaarten
  • Dagkaart
  • Meer »
  • Info
  • Statistieken
  • Directe link
    Temp 6h Neerslag Wind  
 06:10     21:24    Daglengte: 15:14 Vandaag
20:00
21°
 
2
 06:12     21:22    Daglengte: 15:10 Morgen
02:00
17°
0.4 mm
5
08:00
16°
3.1 mm
4
14:00
19°
4.6 mm
6
20:00
18°
1.4 mm
7
 06:13     21:20    Daglengte: 15:07 Zaterdag 07 Aug
02:00
15°
 
5
08:00
14°
 
5
14:00
20°
6.6 mm
4
20:00
18°
20.2 mm
3
warningclass
 06:15     21:18    Daglengte: 15:03 Zondag 08 Aug
02:00
15°
8.1 mm
5
08:00
15°
20.5 mm
5
Locatie info
Region: Noord-Holland
Latitude: 52.3049°N
Longitude: 4.8568°E
0 masl
Postcode: 1181
Temp/Neerslag /Baro Onweer/Dauwpunt
    Temp Baro 1h Neerslag Dauwpunt Wind UV Bewolking  
 06:10     21:24    Daglengte: 15:14 Vandaag
15:00
21°
1007.5 hPa
15%
15.0°
3
Windvlaag: 5.6 m/s
62%
16:00
21°
1006.9 hPa
23%
13.9°
3
Windvlaag: 5.4 m/s
60%
17:00
22°
1006.3 hPa
24%
13.1°
3
Windvlaag: 5.4 m/s
78%
18:00
21°
1006.0 hPa
24%
12.7°
2
Windvlaag: 4.8 m/s
63%
19:00
21°
1005.5 hPa
21%
13.1°
2
Windvlaag: 4.4 m/s
42%
20:00
21°
1005.1 hPa
20%
13.2°
2
Windvlaag: 3.2 m/s
24%
21:00
20°
1004.7 hPa   14.1°
2
Windvlaag: 2.5 m/s
9%
22:00
19°
1004.5 hPa   14.0°
3
Windvlaag: 2.9 m/s
10%
23:00
18°
1004.0 hPa   14.0°
3
Windvlaag: 4.4 m/s
32%
 06:12     21:22    Daglengte: 15:10 Morgen
00:00
17°
1003.3 hPa
24%
14.1°
4
Windvlaag: 5 m/s
51%
01:00
17°
1002.6 hPa
24%
14.4°
5
Windvlaag: 5.9 m/s
60%
02:00
17°
1002.1 hPa 0.4 mm
24%
14.2°
5
Windvlaag: 7.7 m/s
82%
03:00
17°
1001.4 hPa
17%
13.6°
4
Windvlaag: 8.4 m/s
55%
04:00
17°
1000.9 hPa
64%
14.0°
4
Windvlaag: 8.3 m/s
74%
05:00
16°
1000.1 hPa 1.4 mm
82%
14.2°
4
Windvlaag: 8.4 m/s
86%
06:00
16°
999.9 hPa 0.9 mm
82%
14.6°
4
Windvlaag: 8.1 m/s
86% warningclass
07:00
16°
999.8 hPa 0.7 mm
79%
14.9°
4
Windvlaag: 7.6 m/s
66%
08:00
16°
999.8 hPa
26%
15.4°
4
Windvlaag: 7.2 m/s
46%
09:00
17°
999.9 hPa
82%
15.1°
5
Windvlaag: 7.9 m/s
39%
10:00
17°
1000.1 hPa 0.6 mm
82%
15.2°
5
Windvlaag: 9.1 m/s
85%
11:00
18°
1000.2 hPa 0.7 mm
82%
15.1°
6
Windvlaag: 8.7 m/s
78%
12:00
18°
1000.4 hPa 0.7 mm
82%
15.3°
6
Windvlaag: 9.4 m/s
68%
13:00
19°
1000.4 hPa 0.9 mm
82%
14.5°
6
Windvlaag: 10.1 m/s
67% warningclass
14:00
19°
1000.5 hPa 1.6 mm
82%
15.3°
6
Windvlaag: 11 m/s
84%
15:00
18°
1000.7 hPa 1.4 mm
82%
15.3°
6
Windvlaag: 11 m/s
35%
16:00
19°
1000.9 hPa
75%
15.5°
7
Windvlaag: 9.9 m/s
19%
17:00
19°
1001.4 hPa
82%
14.3°
8
Windvlaag: 9.3 m/s
17%
18:00
19°
1001.7 hPa
26%
13.7°
7
Windvlaag: 9.5 m/s
14%
19:00
18°
1002.0 hPa
17%
13.6°
7
Windvlaag: 9 m/s
8%
20:00
18°
1002.3 hPa
14%
13.1°
7
Windvlaag: 9 m/s
15%
21:00
17°
1002.7 hPa
16%
13.0°
6
Windvlaag: 8.3 m/s
55%
22:00
17°
1003.1 hPa
14%
12.5°
6
Windvlaag: 7.8 m/s
42%
23:00
16°
1003.2 hPa
15%
11.9°
5
Windvlaag: 7.9 m/s
34%
 06:13     21:20    Daglengte: 15:07 Zaterdag 07 Aug
00:00
16°
1003.3 hPa
17%
11.6°
5
Windvlaag: 8.6 m/s
36%
01:00
15°
1003.3 hPa
14%
11.6°
5
Windvlaag: 8.4 m/s
14%
02:00
15°
1003.4 hPa
14%
11.5°
5
Windvlaag: 8.4 m/s
31%
03:00
15°
1003.2 hPa
15%
11.6°
5
Windvlaag: 8.2 m/s
21%
04:00
15°
1003.2 hPa
15%
11.7°
4
Windvlaag: 7.6 m/s
8%
05:00
14°
1003.1 hPa
16%
11.7°
4
Windvlaag: 7.5 m/s
19%
06:00
14°
1003.0 hPa
15%
11.8°
4
Windvlaag: 7.7 m/s
50%
07:00
14°
1003.1 hPa
14%
12.3°
4
Windvlaag: 7.5 m/s
44%
08:00
14°
1003.1 hPa
14%
12.4°
5
Windvlaag: 8.3 m/s
21%
09:00
16°
1003.2 hPa
14%
12.5°
5
Windvlaag: 8 m/s
32%
10:00
17°
1003.1 hPa
15%
12.6°
5
Windvlaag: 8 m/s
13%
11:00
18°
1002.6 hPa
67%
12.3°
5
Windvlaag: 8.5 m/s
55%
12:00
19°
1002.1 hPa 3.1 mm
91%
11.0°
5
Windvlaag: 9.3 m/s
72%
13:00
20°
1001.7 hPa
93%
9.5°
4
Windvlaag: 8.5 m/s
15%
14:00
20°
1001.1 hPa 3.4 mm
100%
8.9°
4
Windvlaag: 9.4 m/s
83%
15:00
20°
1000.7 hPa 3.3 mm
83%
9.9°
4
Windvlaag: 9.1 m/s
51%
16:00
21°
1000.6 hPa 4.2 mm
100%
10.3°
4
Windvlaag: 8.4 m/s
38%
17:00
20°
1000.4 hPa 2.3 mm
100%
10.7°
4
Windvlaag: 7.4 m/s
40%
18:00
20°
1000.0 hPa 3.1 mm
100%
10.2°
3
Windvlaag: 7.7 m/s
71%
19:00
19°
1000.0 hPa 2.6 mm
100%
11.7°
4
Windvlaag: 7.6 m/s
85% warningclass
20:00
18°
1000.2 hPa 4.7 mm
100%
10.1°
3
Windvlaag: 7.8 m/s
54% warningclass
21:00
17°
1000.1 hPa 2.1 mm
98%
10.9°
3
Windvlaag: 6 m/s
55%
22:00
17°
1000.4 hPa 3.6 mm
100%
10.8°
3
Windvlaag: 6 m/s
68%
23:00
16°
1000.4 hPa 2.3 mm
95%
10.8°
3
Windvlaag: 7.6 m/s
64%
 06:15     21:18    Daglengte: 15:03 Zondag 08 Aug
00:00
16°
1000.3 hPa
42%
10.7°
4
Windvlaag: 8.9 m/s
23%
01:00
16°
1000.2 hPa
24%
12.3°
4
Windvlaag: 9.9 m/s
90%
02:00
15°
1000.3 hPa
26%
12.8°
5
Windvlaag: 11.1 m/s
86%
03:00
15°
1000.1 hPa 3.6 mm
23%
13.0°
4
Windvlaag: 11 m/s
90%
04:00
15°
1000.2 hPa 3.5 mm
25%
13.4°
5
Windvlaag: 11.1 m/s
92%
05:00
15°
1000.0 hPa 3.4 mm
25%
13.7°
5
Windvlaag: 10.7 m/s
60%
06:00
15°
1000.2 hPa
31%
13.6°
5
Windvlaag: 9.6 m/s
88%
07:00
15°
1000.3 hPa
32%
13.6°
5
Windvlaag: 10.6 m/s
78%
08:00
15°
1000.9 hPa
94%
13.9°
5
Windvlaag: 11.6 m/s
99%
09:00
16°
1001.7 hPa 1.0 mm
100%
-35.7°
5
Windvlaag: 0 m/s
100%
Temp/Neerslag /Baro Onweer/Dauwpunt
    Temp Baro Neerslag Dauwpunt Wind Bewolking  
 06:10     21:24    Daglengte: 15:14 Vandaag
17:00
22°
1006.3 hPa   13.1°
3
78%
20:00
21°
1005.1 hPa   13.2°
2
24%
23:00
18°
1004.0 hPa   14.0°
3
32%
 06:12     21:22    Daglengte: 15:10 Morgen
02:00
17°
1002.1 hPa 0.4 mm 14.2°
5
82%
05:00
16°
1000.1 hPa 1.4 mm 14.2°
4
86%
08:00
16°
999.8 hPa 1.6 mm 15.4°
4
46%
11:00
18°
1000.2 hPa 1.3 mm 15.1°
6
78%
14:00
19°
1000.5 hPa 3.2 mm 15.3°
6
84%
17:00
19°
1001.4 hPa 1.4 mm 14.3°
8
17%
20:00
18°
1002.3 hPa   13.1°
7
15%
23:00
16°
1003.2 hPa   11.9°
5
34%
 06:13     21:20    Daglengte: 15:07 Zaterdag 07 Aug
02:00
15°
1003.4 hPa   11.5°
5
31%
05:00
14°
1003.1 hPa   11.7°
4
19%
08:00
14°
1003.1 hPa   12.4°
5
21%
11:00
18°
1002.6 hPa   12.3°
5
55%
14:00
20°
1001.1 hPa 6.6 mm 8.9°
4
83%
17:00
20°
1000.4 hPa 9.8 mm 10.7°
4
40%
20:00
18°
1000.2 hPa 10.4 mm 10.1°
3
54% warningclass
23:00
16°
1000.4 hPa 8.1 mm 10.8°
3
64%
 06:15     21:18    Daglengte: 15:03 Zondag 08 Aug
02:00
15°
1000.3 hPa   12.8°
5
86%
05:00
15°
1000.0 hPa 10.5 mm 13.7°
5
60%
08:00
15°
1000.9 hPa   13.9°
5
99%
11:00
17°
1003.3 hPa 5.6 mm 14.2°
6
88%
14:00
19°
1005.1 hPa 4.0 mm 16.2°
7
53%
17:00
19°
1008.4 hPa 19.3 mm 12.9°
8
1%
20:00
18°
1009.9 hPa 19.8 mm 12.0°
7
0%
23:00
16°
1011.4 hPa 20.1 mm 11.5°
6
0%
 06:17     21:16    Daglengte: 14:59 Maandag 09 Aug
02:00
15°
1011.9 hPa 20.3 mm 10.9°
6
0%
05:00
14°
1011.7 hPa 20.6 mm 11.7°
5
1%
08:00
14°
1012.3 hPa 21.6 mm 13.3°
5
1%
11:00
18°
1013.5 hPa 22.6 mm 13.6°
6
1%
14:00
18°
1015.0 hPa 23.6 mm 14.6°
6
1%
17:00
20°
1015.9 hPa 24.6 mm 11.7°
6
0%
20:00
19°
1016.8 hPa 24.7 mm 11.9°
4
0%
23:00
15°
1018.1 hPa 24.7 mm 11.5°
2
0%
 06:18     21:14    Daglengte: 14:56 Dinsdag 10 Aug
02:00
15°
1018.7 hPa 24.7 mm 11.8°
2
1%
05:00
15°
1018.8 hPa 24.7 mm 11.6°
2
1%
08:00
16°
1019.9 hPa 24.7 mm 12.6°
2
1%
11:00
20°
1020.5 hPa 24.7 mm 11.2°
3
1%
14:00
22°
1020.6 hPa 24.7 mm 10.5°
4
0%
17:00
21°
1020.5 hPa 24.7 mm 10.6°
4
1%
20:00
18°
1020.3 hPa 24.7 mm 10.5°
2
1%
23:00
15°
1020.6 hPa 24.7 mm 10.3°
1
1%
 06:20     21:12    Daglengte: 14:52 Woensdag 11 Aug
02:00
14°
1020.1 hPa 24.7 mm 10.0°
1
1%
05:00
13°
1019.0 hPa 24.7 mm 9.9°
2
0%
08:00
15°
1018.7 hPa 24.7 mm 10.5°
1
0%
11:00
21°
1018.2 hPa 24.7 mm 10.9°
2
0%
14:00
24°
1016.9 hPa 24.7 mm 11.0°
2
0%
17:00
24°
1015.6 hPa 24.7 mm 11.0°
1
1%
20:00
21°
1015.2 hPa 24.7 mm 12.2°
1
1%
23:00
19°
1014.8 hPa 24.7 mm 12.7°
1
1%
 06:21     21:10    Daglengte: 14:49 Donderdag 12 Aug
02:00
18°
1013.8 hPa 24.9 mm 13.7°
2
1%
05:00
17°
1013.0 hPa 27.0 mm 16.0°
3
1%
08:00
17°
1013.3 hPa 28.0 mm 15.9°
2
1%
11:00
19°
1014.4 hPa 28.7 mm 15.4°
3
1%
14:00
21°
1015.1 hPa 60.9 mm 15.4°
4
1%
20:00
18°
1018.8 hPa 68.6 mm 14.8°
4
1%
 06:23     21:08    Daglengte: 14:45 Vrijdag 13 Aug
02:00
15°
1021.4 hPa 69.0 mm 13.1°
3
1%
08:00
17°
1022.8 hPa 69.1 mm 13.1°
3
0%
14:00
22°
1023.8 hPa 69.2 mm 10.2°
4
0%
20:00
18°
1023.6 hPa 69.2 mm 11.8°
2
0%
 06:25     21:06    Daglengte: 14:41 Zaterdag 14 Aug
02:00
15°
1023.6 hPa 69.2 mm 11.0°
2
0%
08:00
15°
1022.6 hPa 69.2 mm 12.4°
3
0%
14:00
24°
1021.6 hPa 69.2 mm 10.3°
4
0%
20:00
20°
1020.8 hPa 69.2 mm 12.4°
2
0%
 06:26     21:04    Daglengte: 14:38 Zondag 15 Aug
02:00
16°
1020.2 hPa 69.2 mm 11.9°
1
0%
08:00
17°
1018.8 hPa 69.2 mm 11.9°
2
0%
14:00
20°
1013.5 hPa 0.5 mm 12.9°
4
55%
20:00
18°
1012.9 hPa 0.4 mm 13.2°
3
54%
 06:28     21:02    Daglengte: 14:34 Maandag 16 Aug
02:00
16°
1013.0 hPa 0.6 mm 12.1°
2
49%
08:00
16°
1012.5 hPa 0.4 mm 12.8°
2
56%
14:00
20°
1013.7 hPa 0.7 mm 13.6°
4
64%
20:00
18°
1014.3 hPa 0.6 mm 13.1°
3
55%
 06:30     21:00    Daglengte: 14:30 Dinsdag 17 Aug
02:00
15°
1014.9 hPa 0.3 mm 12.2°
2
47%
08:00
16°
1014.9 hPa 0.3 mm 12.8°
3
56%
14:00
20°
1015.7 hPa 0.9 mm 13.9°
4
65%
20:00
19°
1015.4 hPa 0.6 mm 13.5°
3
57%
 06:31     20:58    Daglengte: 14:27 Woensdag 18 Aug
02:00
16°
1015.5 hPa 0.6 mm 13.3°
2
54%
08:00
16°
1015.0 hPa 0.7 mm 13.4°
3
57%
14:00
21°
1015.5 hPa 0.5 mm 13.8°
4
58%
20:00
19°
1015.4 hPa 1.1 mm 13.7°
3
55%
 06:33     20:56    Daglengte: 14:23 Donderdag 19 Aug
02:00
16°
1015.7 hPa 1.1 mm 12.9°
2
55%
08:00
16°
1015.2 hPa 0.5 mm 13.2°
2
52%
14:00
21°
1015.2 hPa 1.2 mm 14.1°
3
59%
20:00
18°
1014.9 hPa 0.8 mm 13.4°
2
49%
 06:35     20:54    Daglengte: 14:19 Vrijdag 20 Aug
02:00
16°
1015.0 hPa 0.5 mm 12.9°
1
51%
08:00
16°
1014.6 hPa 0.9 mm 13.1°
2
49%
14:00
20°
1014.9 hPa 0.8 mm 13.5°
3
59%
  CAPE Lifted Index Hail Supercell Tornado SRH 3km CL BTM PRES CL TOP PRES Swiss DWD icon SMHI TS
 06:10     21:24    Daglengte: 15:14 Vandaag
15:00 106 J/kg 1.6 K 0 % 0 % 0 % 0 m²/s² 0 0 3.1 80
16:00 124 J/kg 1.4 K 0 % 0 % 0 % 0 m²/s² 0 0 2.9 80
17:00 141 J/kg 1.0 K 0 % 0 % 0 % 0 m²/s² 0 0 2.62 3
18:00 166 J/kg 0.5 K 0 % 0 % 0 % 0 m²/s² 0 0 2.36 3
19:00 162 J/kg 0.6 K 0 % 0 % 0 % 0 m²/s² 0 0 2.64 3
20:00 172 J/kg 0.4 K 0 % 0 % 0 % 0 m²/s² 0 0 2.86 3
21:00 172 J/kg 0.2 K 0 % 0 % 0 % 0 m²/s² 0 0 2.24 2
22:00 136 J/kg 0.4 K 0 % 0 % 0 % 0 m²/s² 0 0 2.08 3
23:00 94 J/kg 0.6 K 0 % 0 % 0 % 0 m²/s² 0 0 2.04 2
 06:12     21:22    Daglengte: 15:10 Morgen
00:00 39 J/kg 0.1 K 0 % 0 % 0 % 0 m²/s² 0 0 1.48 61
01:00 6 J/kg 0.0 K 0 % 0 % 0 % 0 m²/s² 0 0 1.5 3
02:00 61 J/kg 0.1 K 0 % 0 % 0 % 0 m²/s² 0 0 0.79 61
03:00 10 J/kg 0.4 K 0 % 0 % 0 % 0 m²/s² 0 0 1.09 3
04:00 0 J/kg 0.0 K 0 % 0 % 0 % 0 m²/s² 0 0 0.48 3
05:00 41 J/kg -1.8 K 0 % 0 % 0 % 0 m²/s² 0 0 -1.23 61
06:00 22 J/kg -1.8 K 0 % 0 % 0 % 0 m²/s² 0 0 -1.23 95
07:00 93 J/kg -1.7 K 0 % 0 % 0 % 0 m²/s² 0 0 -1.1 80
08:00 170 J/kg -1.7 K 0 % 0 % 0 % 0 m²/s² 0 0 -1.28 3
09:00 332 J/kg -1.1 K 0 % 0 % 0 % 0 m²/s² 0 0 0.25 3
10:00 158 J/kg -0.3 K 0 % 0 % 0 % 0 m²/s² 0 0 1.89 80
11:00 275 J/kg -0.4 K 0 % 0 % 0 % 0 m²/s² 0 0 1.73 80
12:00 255 J/kg -0.2 K 0 % 0 % 0 % 0 m²/s² 0 0 0.97 80
13:00 276 J/kg -0.4 K 0 % 0 % 0 % 0 m²/s² 0 0 0.56 95
14:00 244 J/kg -0.6 K 0 % 0 % 0 % 0 m²/s² 0 0 -0.27 80
15:00 439 J/kg -1.3 K 0 % 0 % 0 % 0 m²/s² 0 0 -1.21 80
16:00 748 J/kg -2.6 K 0 % 0 % 0 % 0 m²/s² 0 0 -2.48 2
17:00 456 J/kg -1.6 K 0 % 0 % 0 % 0 m²/s² 0 0 0.44 2
18:00 204 J/kg -0.9 K 0 % 0 % 0 % 0 m²/s² 0 0 2.25 2
19:00 141 J/kg -0.8 K 0 % 0 % 0 % 0 m²/s² 0 0 2.35 2
20:00 165 J/kg -1.1 K 0 % 0 % 0 % 0 m²/s² 0 0 2.05 2
21:00 144 J/kg -0.7 K 0 % 0 % 0 % 0 m²/s² 0 0 2.03 3
22:00 28 J/kg 0.1 K 0 % 0 % 0 % 0 m²/s² 0 0 2.53 2
23:00 21 J/kg 0.1 K 0 % 0 % 0 % 0 m²/s² 0 0 2.26 2
 06:13     21:20    Daglengte: 15:07 Zaterdag 07 Aug
00:00 0 J/kg 0.0 K 0 % 0 % 0 % 0 m²/s² 0 0 2.58 2
01:00 0 J/kg 0.3 K 0 % 0 % 0 % 0 m²/s² 0 0 3.33 2
02:00 0 J/kg 0.4 K 0 % 0 % 0 % 0 m²/s² 0 0 3.43 2
03:00 0 J/kg 0.5 K 0 % 0 % 0 % 0 m²/s² 0 0 3.71 2
04:00 0 J/kg 0.3 K 0 % 0 % 0 % 0 m²/s² 0 0 3.18 2
05:00 0 J/kg 0.0 K 0 % 0 % 0 % 0 m²/s² 0 0 2.34 1
06:00 0 J/kg 0.2 K 0 % 0 % 0 % 0 m²/s² 0 0 2.54 3
07:00 0 J/kg 0.5 K 0 % 0 % 0 % 0 m²/s² 0 0 2.45 3
08:00 0 J/kg 0.4 K 0 % 0 % 0 % 0 m²/s² 0 0 2.11 2
09:00 120 J/kg 0.3 K 0 % 0 % 0 % 0 m²/s² 0 0 1.77 3
10:00 304 J/kg -1.0 K 0 % 0 % 0 % 0 m²/s² 0 0 0.35 2
11:00 423 J/kg -1.7 K 0 % 0 % 0 % 0 m²/s² 0 0 -0.44 2
12:00 365 J/kg -1.4 K 0 % 0 % 0 % 0 m²/s² 0 0 -0.2 2
13:00 237 J/kg -0.7 K 0 % 0 % 0 % 0 m²/s² 0 0 0.92 2
14:00 213 J/kg -0.6 K 0 % 0 % 0 % 0 m²/s² 0 0 1.35 2
15:00 255 J/kg -0.9 K 0 % 0 % 0 % 0 m²/s² 0 0 0.81 2
16:00 312 J/kg -1.2 K 0 % 0 % 0 % 0 m²/s² 0 0 0.69 2
17:00 283 J/kg -1.3 K 0 % 0 % 0 % 0 m²/s² 0 0 0.77 3
18:00 291 J/kg -1.1 K 0 % 0 % 0 % 0 m²/s² 0 0 1.12 80
19:00 301 J/kg -1.3 K 0 % 0 % 0 % 0 m²/s² 0 0 0.71 95
20:00 328 J/kg -1.1 K 0 % 0 % 0 % 0 m²/s² 0 0 1.06 95
21:00 290 J/kg -1.1 K 0 % 0 % 0 % 0 m²/s² 0 0 1.18 80
22:00 222 J/kg -0.9 K 0 % 0 % 0 % 0 m²/s² 0 0 1.38 80
23:00 262 J/kg -1.1 K 0 % 0 % 0 % 0 m²/s² 0 0 0.61 80
 06:15     21:18    Daglengte: 15:03 Zondag 08 Aug
00:00 212 J/kg -1.3 K 0 % 0 % 0 % 0 m²/s² 0 0 0.02 3
01:00 161 J/kg -1.1 K 0 % 0 % 0 % 0 m²/s² 0 0 -0.8 3
02:00 148 J/kg -1.2 K 0 % 0 % 0 % 0 m²/s² 0 0 -0.57 3
03:00 74 J/kg -1.1 K 0 % 0 % 0 % 0 m²/s² 0 0 -0.08 3
04:00 301 J/kg -1.8 K 0 % 0 % 0 % 0 m²/s² 0 0 -0.6 3
05:00 175 J/kg -0.9 K 0 % 0 % 0 % 0 m²/s² 0 0 0.48 3
06:00 0 J/kg -0.8 K 0 % 0 % 0 % 0 m²/s² 0 0 0.67 3
07:00 0 J/kg -2.1 K 0 % 0 % 0 % 0 m²/s² 0 0 -0.99 3
08:00 293 J/kg -2.3 K 0 % 0 % 0 % 0 m²/s² 0 0 -1.1 3
09:00 0 J/kg 0.0 K 0 % 0 % 0 % 0 m²/s² 0 0 13.83 80
Temp Baro Wind Neerslag
  EWN Forecast EWN WRFDA DWD ICON FMI HIRLAM MET Norway GFS
 06:10     21:24    Daglengte: 15:14 Vandaag
17:00 21.6° 1006.3 hPa 2.6 m/s 0.0 mm 23.0° 1005.3 hPa 2.2 m/s 0.0 mm 21.6° 1006.2 hPa 3.2 m/s -1.4 mm 21.5° 1006.3 hPa 1.5 m/s 0.0 mm 21.4° 1006.1 hPa 2.3 m/s
20:00 20.7° 1005.1 hPa 2.3 m/s 0.0 mm 22.9° 1004.0 hPa 2.2 m/s 0.0 mm 20.2° 1005.1 hPa 2.2 m/s 0.2 mm 20.7° 1005.2 hPa 2.2 m/s 0.0 mm 19.1° 1004.4 hPa 1.9 m/s
23:00 18.0° 1004.0 hPa 3.2 m/s 0.0 mm 18.7° 1003.0 hPa 3.3 m/s 0.0 mm 17.9° 1004.4 hPa 2.8 m/s 0.0 mm 18.8° 1004.0 hPa 3.2 m/s 0.0 mm 16.1° 1003.4 hPa 2.7 m/s
 06:12     21:22    Daglengte: 15:10 Morgen
02:00 17.0° 1002.1 hPa 4.6 m/s 0.4 mm 16.9° 1001.5 hPa 3.5 m/s 0.0 mm 16.9° 1002.3 hPa 3.0 m/s 1.0 mm 18.1° 1001.8 hPa 4.9 m/s 0.0 mm 16.3° 1001.7 hPa 3.8 m/s
05:00 16.5° 1000.1 hPa 4.3 m/s 1.4 mm 16.5° 999.8 hPa 3.1 m/s 0.4 mm 15.8° 1000.1 hPa 3.7 m/s 1.7 mm 17.3° 999.5 hPa 4.4 m/s 0.0 mm 15.6° 1000.1 hPa 4.6 m/s
08:00 16.5° 999.8 hPa 4.4 m/s 1.6 mm 16.3° 999.0 hPa 5.0 m/s 2.3 mm 16.5° 1000.0 hPa 3.8 m/s 2.1 mm 16.9° 998.9 hPa 4.4 m/s 0.0 mm 16.2° 1000.1 hPa 4.7 m/s
11:00 17.9° 1000.2 hPa 5.6 m/s 1.3 mm 19.4° 999.7 hPa 4.9 m/s 5.0 mm 17.7° 1000.4 hPa 4.4 m/s 1.3 mm 18.4° 999.2 hPa 5.8 m/s 0.0 mm 16.8° 1000.9 hPa 5.3 m/s
14:00 18.9° 1000.5 hPa 6.4 m/s 3.2 mm 19.6° 1000.1 hPa 6.6 m/s 7.0 mm 18.9° 1000.8 hPa 5.7 m/s 1.4 mm 18.5° 999.2 hPa 6.1 m/s 0.0 mm 18.3° 1000.8 hPa 6.9 m/s
17:00 18.7° 1001.4 hPa 7.9 m/s 1.4 mm 20.2° 999.9 hPa 7.7 m/s 20.9 mm 19.5° 1002.1 hPa 6.4 m/s 0.4 mm 18.5° 1000.2 hPa 8.1 m/s 0.0 mm 19.1° 1001.6 hPa 7.6 m/s
20:00 18.0° 1002.3 hPa 6.9 m/s 0.0 mm 19.0° 1000.8 hPa 7.7 m/s 26.2 mm 19.0° 1002.6 hPa 5.4 m/s 0.0 mm 17.6° 1001.5 hPa 6.9 m/s 0.0 mm 18.1° 1002.3 hPa 6.2 m/s
23:00 16.4° 1003.2 hPa 5.3 m/s 0.0 mm 15.5° 1001.8 hPa 3.7 m/s 26.2 mm 16.4° 1003.4 hPa 2.9 m/s 0.0 mm 17.4° 1002.9 hPa 6.2 m/s 0.0 mm 16.4° 1003.5 hPa 5.5 m/s
 06:13     21:20    Daglengte: 15:07 Zaterdag 07 Aug
02:00 15.1° 1003.4 hPa 5.1 m/s 0.0 mm 14.0° 1001.4 hPa 4.6 m/s 26.2 mm 15.3° 1003.5 hPa 3.0 m/s 0.0 mm 16.1° 1003.4 hPa 5.5 m/s 0.0 mm 14.7° 1003.6 hPa 4.5 m/s
05:00 14.2° 1003.1 hPa 4.5 m/s 0.0 mm 12.7° 1001.4 hPa 3.9 m/s 26.2 mm 14.4° 1003.2 hPa 2.8 m/s 0.0 mm 14.8° 1003.2 hPa 4.8 m/s 0.0 mm 13.4° 1003.8 hPa 3.9 m/s
08:00 14.5° 1003.1 hPa 4.8 m/s 0.0 mm 14.2° 1001.5 hPa 5.2 m/s 26.2 mm 14.9° 1003.3 hPa 2.4 m/s 0.0 mm 14.5° 1003.5 hPa 5.5 m/s 0.0 mm 14.5° 1003.5 hPa 3.7 m/s
11:00 18.2° 1002.6 hPa 5.0 m/s 0.0 mm 18.4° 1001.5 hPa 5.3 m/s 26.2 mm 18.9° 1002.7 hPa 3.4 m/s 0.0 mm 19.4° 1003.1 hPa 4.1 m/s
14:00 20.3° 1001.1 hPa 4.4 m/s 6.6 mm 21.1° 1000.3 hPa 5.1 m/s 26.2 mm 20.6° 1001.9 hPa 3.8 m/s 0.1 mm 20.5° 1002.2 hPa 4.6 m/s
17:00 20.2° 1000.4 hPa 3.7 m/s 9.8 mm 20.4° 999.9 hPa 3.6 m/s 26.5 mm 20.9° 1000.7 hPa 3.3 m/s 0.2 mm 22.1° 1001.0 hPa 4.2 m/s
20:00 17.9° 1000.2 hPa 2.9 m/s 10.4 mm 20.0° 999.4 hPa 1.4 m/s 28.2 mm 17.6° 1000.4 hPa 2.7 m/s 3.7 mm 18.0° 1001.0 hPa 2.7 m/s
23:00 16.2° 1000.4 hPa 3.5 m/s 8.1 mm 17.3° 999.3 hPa 2.0 m/s 28.9 mm 16.1° 1000.5 hPa 3.0 m/s 1.6 mm 15.3° 1001.3 hPa 3.6 m/s
 06:15     21:18    Daglengte: 15:03 Zondag 08 Aug
02:00 15.1° 1000.3 hPa 4.6 m/s 0.0 mm 14.6° 999.3 hPa 2.0 m/s 29.3 mm 15.6° 1000.4 hPa 4.0 m/s 0.0 mm 14.2° 1001.8 hPa 4.2 m/s
05:00 15.0° 1000.0 hPa 4.9 m/s 10.5 mm 14.3° 999.3 hPa 4.3 m/s 29.6 mm 15.1° 999.8 hPa 4.2 m/s 0.0 mm 13.3° 1002.0 hPa 4.9 m/s
08:00 15.2° 1000.9 hPa 5.5 m/s 0.0 mm 15.1° 999.9 hPa 4.8 m/s 29.8 mm 15.8° 1000.7 hPa 4.2 m/s 0.1 mm 14.1° 1002.7 hPa 5.6 m/s
11:00 17.1° 1003.3 hPa 5.6 m/s 5.6 mm 17.2° 1003.2 hPa 5.6 m/s 2.8 mm 16.7° 1004.0 hPa 5.5 m/s 17.2 mm
14:00 18.8° 1005.1 hPa 7.2 m/s 4.0 mm 19.1° 1004.9 hPa 7.4 m/s 0.5 mm 16.6° 1006.4 hPa 6.2 m/s 18.4 mm
17:00 18.8° 1008.4 hPa 7.6 m/s 19.3 mm 18.8° 1008.4 hPa 7.6 m/s 19.3 mm
20:00 17.6° 1009.9 hPa 6.9 m/s 19.8 mm 17.6° 1009.9 hPa 6.9 m/s 19.8 mm
23:00 15.9° 1011.4 hPa 5.8 m/s 20.1 mm 15.9° 1011.4 hPa 5.8 m/s 20.2 mm
 06:17     21:16    Daglengte: 14:59 Maandag 09 Aug
02:00 15.0° 1011.9 hPa 5.5 m/s 20.3 mm 15.0° 1011.9 hPa 5.5 m/s 20.3 mm
05:00 14.3° 1011.7 hPa 5.1 m/s 20.6 mm 14.3° 1011.7 hPa 5.1 m/s 20.6 mm
08:00 14.3° 1012.3 hPa 4.8 m/s 21.6 mm 14.3° 1012.3 hPa 4.8 m/s 21.6 mm
11:00 17.7° 1013.5 hPa 6.1 m/s 22.6 mm 17.7° 1013.5 hPa 6.1 m/s 22.6 mm
14:00 18.5° 1015.0 hPa 6.2 m/s 23.6 mm 18.5° 1015.0 hPa 6.2 m/s 23.6 mm
17:00 19.8° 1015.9 hPa 6.3 m/s 24.6 mm 19.8° 1015.9 hPa 6.3 m/s 24.6 mm
20:00 18.6° 1016.8 hPa 4.0 m/s 24.7 mm 18.6° 1016.8 hPa 4.0 m/s 24.7 mm
23:00 14.9° 1018.1 hPa 2.1 m/s 24.7 mm 14.9° 1018.1 hPa 2.1 m/s 24.7 mm
 06:18     21:14    Daglengte: 14:56 Dinsdag 10 Aug
02:00 14.6° 1018.7 hPa 2.1 m/s 24.7 mm 14.6° 1018.7 hPa 2.1 m/s 24.7 mm
05:00 14.6° 1018.8 hPa 2.3 m/s 24.7 mm 14.6° 1018.8 hPa 2.3 m/s 24.7 mm
08:00 16.4° 1019.9 hPa 1.9 m/s 24.7 mm 16.4° 1019.9 hPa 1.9 m/s 24.7 mm
11:00 20.5° 1020.5 hPa 3.4 m/s 24.7 mm 20.5° 1020.5 hPa 3.4 m/s 24.7 mm
14:00 22.0° 1020.6 hPa 4.1 m/s 24.7 mm 22.0° 1020.6 hPa 4.1 m/s 24.7 mm
17:00 20.8° 1020.5 hPa 4.1 m/s 24.7 mm 20.8° 1020.5 hPa 4.1 m/s 24.7 mm
20:00 18.3° 1020.3 hPa 2.3 m/s 24.7 mm 18.3° 1020.3 hPa 2.3 m/s 24.7 mm
23:00 15.5° 1020.6 hPa 0.6 m/s 24.7 mm 15.5° 1020.6 hPa 0.6 m/s 24.7 mm
 06:20     21:12    Daglengte: 14:52 Woensdag 11 Aug
02:00 14.1° 1020.1 hPa 1.1 m/s 24.7 mm 14.1° 1020.1 hPa 1.1 m/s 24.7 mm
05:00 12.9° 1019.0 hPa 1.7 m/s 24.7 mm 12.9° 1019.0 hPa 1.7 m/s 24.7 mm
08:00 15.0° 1018.7 hPa 1.5 m/s 24.7 mm 15.0° 1018.7 hPa 1.5 m/s 24.7 mm
11:00 20.7° 1018.2 hPa 1.9 m/s 24.7 mm 20.7° 1018.2 hPa 1.9 m/s 24.7 mm
14:00 23.7° 1016.9 hPa 1.9 m/s 24.7 mm 23.7° 1016.9 hPa 1.9 m/s 24.7 mm
17:00 23.6° 1015.6 hPa 1.5 m/s 24.7 mm 23.6° 1015.6 hPa 1.5 m/s 24.7 mm
20:00 20.7° 1015.2 hPa 1.2 m/s 24.7 mm 20.7° 1015.2 hPa 1.2 m/s 24.7 mm
23:00 19.3° 1014.8 hPa 1.3 m/s 24.7 mm 19.3° 1014.8 hPa 1.3 m/s 24.7 mm
 06:21     21:10    Daglengte: 14:49 Donderdag 12 Aug
02:00 17.9° 1013.8 hPa 1.8 m/s 24.9 mm 17.9° 1013.8 hPa 1.8 m/s 24.9 mm
05:00 16.6° 1013.0 hPa 2.7 m/s 27.0 mm 16.6° 1013.0 hPa 2.7 m/s 27.0 mm
08:00 16.7° 1013.3 hPa 2.0 m/s 28.0 mm 16.7° 1013.3 hPa 2.0 m/s 28.0 mm
11:00 19.1° 1014.4 hPa 3.0 m/s 28.7 mm 19.1° 1014.4 hPa 3.0 m/s 28.7 mm
14:00 20.8° 1015.1 hPa 4.3 m/s 32.2 mm 20.8° 1015.1 hPa 4.3 m/s 32.2 mm
20:00 18.1° 1018.8 hPa 4.2 m/s 34.5 mm 18.0° 1018.8 hPa 4.2 m/s 34.5 mm
 06:23     21:08    Daglengte: 14:45 Vrijdag 13 Aug
02:00 15.1° 1021.4 hPa 2.8 m/s 34.5 mm 15.1° 1021.4 hPa 2.8 m/s 34.5 mm
08:00 16.6° 1022.8 hPa 2.8 m/s 34.6 mm 16.6° 1022.8 hPa 2.8 m/s 34.6 mm
14:00 21.6° 1023.8 hPa 4.2 m/s 34.6 mm 21.6° 1023.8 hPa 4.2 m/s 34.6 mm
20:00 18.4° 1023.6 hPa 2.5 m/s 34.6 mm 18.4° 1023.6 hPa 2.5 m/s 34.6 mm
 06:25     21:06    Daglengte: 14:41 Zaterdag 14 Aug
02:00 14.5° 1023.6 hPa 1.8 m/s 34.6 mm 14.5° 1023.6 hPa 1.8 m/s 34.6 mm
08:00 15.5° 1022.6 hPa 2.7 m/s 34.6 mm 15.5° 1022.6 hPa 2.7 m/s 34.6 mm
14:00 24.0° 1021.6 hPa 4.4 m/s 34.6 mm 24.0° 1021.6 hPa 4.4 m/s 34.6 mm
20:00 20.4° 1020.8 hPa 2.1 m/s 34.6 mm 20.4° 1020.8 hPa 2.1 m/s 34.6 mm
 06:26     21:04    Daglengte: 14:38 Zondag 15 Aug
02:00 16.2° 1020.2 hPa 1.1 m/s 34.6 mm 16.2° 1020.2 hPa 1.1 m/s 34.6 mm
08:00 16.9° 1018.8 hPa 1.6 m/s 34.6 mm 16.9° 1018.8 hPa 1.6 m/s 34.6 mm
14:00 20.1° 1013.5 hPa 3.9 m/s 0.5 mm
20:00 18.4° 1012.9 hPa 2.6 m/s 0.4 mm
 06:28     21:02    Daglengte: 14:34 Maandag 16 Aug
02:00 15.7° 1013.0 hPa 1.9 m/s 0.6 mm
08:00 15.8° 1012.5 hPa 2.5 m/s 0.4 mm
14:00 20.3° 1013.7 hPa 4.4 m/s 0.7 mm
20:00 18.1° 1014.3 hPa 3.3 m/s 0.6 mm
 06:30     21:00    Daglengte: 14:30 Dinsdag 17 Aug
02:00 15.3° 1014.9 hPa 2.4 m/s 0.3 mm
08:00 15.7° 1014.9 hPa 3.0 m/s 0.3 mm
14:00 20.4° 1015.7 hPa 4.1 m/s 0.9 mm
20:00 18.6° 1015.4 hPa 2.9 m/s 0.6 mm
 06:31     20:58    Daglengte: 14:27 Woensdag 18 Aug
02:00 16.2° 1015.5 hPa 2.4 m/s 0.6 mm
08:00 16.3° 1015.0 hPa 2.9 m/s 0.7 mm
14:00 21.1° 1015.5 hPa 3.6 m/s 0.5 mm
20:00 18.7° 1015.4 hPa 2.9 m/s 1.1 mm
 06:33     20:56    Daglengte: 14:23 Donderdag 19 Aug
02:00 15.9° 1015.7 hPa 2.0 m/s 1.1 mm
08:00 16.1° 1015.2 hPa 1.8 m/s 0.5 mm
14:00 20.5° 1015.2 hPa 3.0 m/s 1.2 mm
20:00 18.5° 1014.9 hPa 2.2 m/s 0.8 mm
 06:35     20:54    Daglengte: 14:19 Vrijdag 20 Aug
02:00 15.5° 1015.0 hPa 1.3 m/s 0.5 mm
08:00 15.6° 1014.6 hPa 1.5 m/s 0.9 mm
14:00 20.1° 1014.9 hPa 2.8 m/s 0.8 mm
FMI Hirlam - 7.5 km EWN WRFDA - 12 km DWD ICON - 7 km GFS - 25 km Basiskaart






























































Updatetijd (Europe/Brussels) Resolutie Lengte Stap
FMI Hirlam 14:00, 20:00, 02:00, 08:00 7.5 km 49h 1h
EWN WRFDA 04:15, 10:15, 16:15, 22:15 12 km 73h 1h
DWD ICON 11:45, 17:45, 23:45, 05:45 7 km 75h 1h
GFS 14:15, 20:15, 02:15, 08:15 25 km 237h 3h
30+ mm
25-30 mm
20-25 mm
15-20 mm
10-15 mm
6-10 mm
4-6 mm
2-4 mm
1-2 mm
0.5-1 mm
0.2-0.5 mm
0.1-0.2 mm
30+ mm
25-30 mm
20-25 mm
15-20 mm
10-15 mm
6-10 mm
4-6 mm
2-4 mm
1-2 mm
0.5-1 mm
0.2-0.5 mm
0.1-0.2 mm
Sneeuwval
Natte sneeuw
Hagel
Vorst
30+ mm
25-30 mm
20-25 mm
15-20 mm
10-15 mm
6-10 mm
4-6 mm
2-4 mm
1-2 mm
0.5-1 mm
0.2-0.5 mm
0.1-0.2 mm
Sneeuwval
Natte sneeuw
Hagel
Vorst
Onweer
50 mm
40 mm
30 mm
26 mm
22 mm
18 mm
14 mm
10 mm
9 mm
8 mm
7 mm
6 mm
5 mm
4.5 mm
4 mm
3.5 mm
3 mm
2.5 mm
2 mm
1.5 mm
1 mm
0.8 mm
0.6 mm
0.4 mm
0.2 mm
0.05 mm
35°
30°
25°
20°
15°
10°
-5°
-10°
-15°
-20°
-25°
-30°
-35°
33> m/s
29 m/s
25 m/s
21 m/s
17 m/s
14 m/s
11 m/s
8 m/s
5 m/s
3 m/s
0 m/s
2600 J/kg
2400 J/kg
2200 J/kg
2000 J/kg
1800 J/kg
1600 J/kg
1400 J/kg
1200 J/kg
1000 J/kg
800 J/kg
600 J/kg
400 J/kg
200 J/kg
70 dBZ
65 dBZ
60 dBZ
55 dBZ
50 dBZ
45 dBZ
40 dBZ
35 dBZ
30 dBZ
25 dBZ
20 dBZ
15 dBZ
10 dBZ
5 dBZ
-1 K
-2 K
-3 K
-4 K
-5 K
-6 K
-7 K
-8 K
-9 K
950 m²/s²
900 m²/s²
850 m²/s²
800 m²/s²
750 m²/s²
700 m²/s²
650 m²/s²
600 m²/s²
550 m²/s²
500 m²/s²
450 m²/s²
400 m²/s²
350 m²/s²
300 m²/s²
250 m²/s²
200 m²/s²
150 m²/s²
100 m²/s²
46 m/s
44 m/s
42 m/s
40 m/s
38 m/s
36 m/s
34 m/s
32 m/s
30 m/s
28 m/s
26 m/s
24 m/s
22 m/s
20 m/s
16 m/s
12 m/s
8 m/s
4 m/s
30 m/s
28 m/s
26 m/s
24 m/s
22 m/s
20 m/s
18 m/s
16 m/s
14 m/s
12 m/s
10 m/s
8 m/s
6 m/s
4 m/s
2 m/s
3.0
2.8
2.6
2.4
2.2
2.0
1.8
1.6
1.4
1.2
1.0
0.8
0.6
0.4
0.2
15
14
13
12
11
10
9
8
7
6
5
4
3
2
1
90%
80%
70%
60%
50%
40%
30%
20%
10%
42